Location: Poughquag
(41.6090°N, 73.6820°W)
Time: 02:48:54
(UTC-04:00)

Vanguard 1 Rocket - Pass Details

Date: 31 May 2020
Orbit: 653 x 4224 km, 34.3° (Epoch: 06 July)

Event Time Altitude Azimuth Distance (km) Brightness Sun altitude
Rises 02:55:31 0° 255° (WSW) 7,557 11.7 -20.3°
Reaches altitude 10° 03:01:25 10° 253° (WSW) 6,028 11.1 -19.7°
Maximum altitude 03:17:18 59° 180° (S) 2,101 8.9 -18.1°
Drops below altitude 10° 03:25:21 10° 102° (ESE) 3,209 10.5 -17.2°
Sets 03:27:32 0° 98° (E) 3,902 11.1 -17.0°
